This is the latest recevied weather packets stored in our database for station/object K0QJ. If no packets are shown the sender has not sent any weather packets the latest 10 day(s).
| Time | Temp. | Humidity | Pressure | Rain* | Wind** | Luminosity | Snow |
|---|---|---|---|---|---|---|---|
| 1777679462 | 17.22° C | 36% | 1014.8 hPa | 0 mm | - | 28 W/m² | - |
| 1777679157 | 17.22° C | 36% | 1014.8 hPa | 0 mm | - | 29 W/m² | - |
| 1777678855 | 17.22° C | 36% | 1014.8 hPa | 0 mm | - | 29 W/m² | - |
| 1777678553 | 17.22° C | 35% | 1014.7 hPa | 0 mm | - | 35 W/m² | - |
| 1777678250 | 17.22° C | 35% | 1014.7 hPa | 0 mm | - | 32 W/m² | - |
| 1777677946 | 17.22° C | 36% | 1014.7 hPa | 0 mm | - | 32 W/m² | - |
| 1777677643 | 17.22° C | 34% | 1014.8 hPa | 0 mm | - | 34 W/m² | - |
| 1777677341 | 17.78° C | 35% | 1014.7 hPa | 0 mm | - | 35 W/m² | - |
| 1777677039 | 17.22° C | 33% | 1014.9 hPa | 0 mm | - | 36 W/m² | - |
| 1777676738 | 17.22° C | 35% | 1014.6 hPa | 0 mm | - | 38 W/m² | - |
| 1777676435 | 17.22° C | 36% | 1014.6 hPa | 0 mm | - | 35 W/m² | - |
| 1777676133 | 17.22° C | 35% | 1014.7 hPa | 0 mm | - | 73 W/m² | - |
| 1777675829 | 17.22° C | 36% | 1015 hPa | 0 mm | - | 61 W/m² | - |
| 1777675526 | 17.22° C | 34% | 1014.6 hPa | 0 mm | - | 86 W/m² | - |
| 1777675223 | 17.78° C | 33% | 1014.7 hPa | 0 mm | - | 79 W/m² | - |
| 1777674920 | 17.78° C | 32% | 1014.7 hPa | 0 mm | - | 66 W/m² | - |
| 1777674616 | 18.33° C | 33% | 1014.8 hPa | 0 mm | - | 66 W/m² | - |
| 1777674308 | 17.78° C | 36% | 1014.6 hPa | 0 mm | - | 71 W/m² | - |
| 1777674005 | 17.78° C | 36% | 1014.7 hPa | 0 mm | - | 57 W/m² | - |
| 1777673700 | 17.78° C | 33% | 1014.9 hPa | 0 mm | - | 65 W/m² | - |
| 1777673398 | 18.33° C | 33% | 1014.8 hPa | 0 mm | - | 67 W/m² | - |
| 1777673095 | 17.78° C | 34% | 1014.8 hPa | 0 mm | - | 50 W/m² | - |
| 1777672791 | 17.78° C | 32% | 1014.7 hPa | 0 mm | - | 52 W/m² | - |
| 1777672488 | 17.78° C | 33% | 1014.9 hPa | 0 mm | - | 73 W/m² | - |
| 1777672183 | 17.78° C | 33% | 1015 hPa | 0 mm | - | 56 W/m² | - |
* Rain latest hour (hover to see other rain measurements)
** Current wind speed in m/s (hover to see current wind gust speed)